[[{"header":{"parameterUnit":"m.s-1","parameterCategory":1,"la1":30.2991,"la2":30.254,"lo1":-89.0895,"lo2":-89.0444,"dy":0.0017,"dx":0.0017,"nx":28,"ny":28,"refTime":"2025-11-09T09:00:00:Z","depth":0,"parameterNumber":2,"parameterNumberName":"U-component_of_WINDS"},"data":[0,0,0,0,0,0,0,0,0,0,0,0,0,0,0,0,0,0,0,0,0,0,0,0,0,0,0,0,0,0,0,0,0,0,0,0,0,0,0,0,0,0,0,0,0,0,0,0,0,0,0,0,0,0,0,0,0,0,2.1942,2.1943,0,2.206,2.2061,2.2063,2.2089,2.2088,2.2088,2.2087,2.221,2.2214,2.2218,0,0,0,0,0,0,0,0,0,0,0,0,0,2.174,2.1743,2.1941,2.1943,2.1944,2.206,2.2061,2.2063,2.2089,2.2088,2.2087,2.2086,2.2208,2.2213,2.2218,0,0,0,0,0,0,0,0,0,0,0,0,0,2.184,2.1744,2.1941,2.1972,2.1975,2.2059,2.2061,2.2063,2.209,2.2088,2.2087,2.2086,2.2207,2.2213,2.2219,2.2281,0,0,2.2237,2.224,0,0,0,0,0,0,0,0,2.1834,2.1847,2.1966,2.197,2.1974,2.2058,2.2035,2.2136,2.209,2.2046,2.2087,2.2085,2.2161,2.217,2.2195,2.2287,2.2292,2.2238,2.2241,2.2244,2.2246,0,0,0,0,0,0,0,2.1827,2.1842,2.1988,2.1967,2.1972,2.198,2.1992,2.2054,2.2109,2.205,2.2052,2.2066,2.2163,2.2189,2.2198,2.2294,2.2238,2.2243,2.2247,2.2249,2.2443,2.2444,0,0,0,0,0,0,2.1814,2.1836,2.1985,2.1992,2.1899,2.1984,2.1999,2.2033,2.2108,2.2119,2.2067,2.2067,2.218,2.2191,2.2203,2.2281,2.2244,2.225,2.2253,2.2442,2.2443,2.2445,0,0,0,0,0,0,2.181,2.1827,2.198,2.1915,2.1935,2.1989,2.2027,2.2036,2.2062,2.2121,2.2131,2.2084,2.2179,2.2194,2.2261,2.2286,2.2252,2.2258,2.244,2.2442,2.2444,2.2437,0,0,0,0,0,0,2.1804,2.1826,2.185,2.1915,2.1938,2.2036,2.2029,2.2039,2.2073,2.2074,2.214,2.215,2.2179,2.2252,2.2267,2.2293,2.2263,2.2438,2.2441,2.2443,2.2436,2.2439,2.2442,0,0,0,0,0,2.1797,2.1844,2.1851,2.1869,2.1969,2.2037,2.205,2.2083,2.2074,2.2099,2.2137,2.2148,2.228,2.2259,2.2276,2.2304,2.2436,2.244,2.2443,2.2434,2.2439,2.2442,0,0,0,0,0,0,2.178,2.1853,2.1862,2.1931,2.1978,2.2042,2.2074,2.2087,2.2137,2.2136,2.2175,2.219,2.2254,2.2286,2.2261,2.2369,2.2358,2.2365,2.2346,2.235,2.2353,2.2344,2.2268,0,0,0,0,0,2.1785,2.1834,2.1894,2.195,2.1973,2.2019,2.205,2.2071,2.2121,2.2141,2.2184,2.2233,2.2286,2.232,2.2372,2.2441,2.2455,2.2469,2.2472,2.2474,2.248,2.2518,2.2525,2.2456,2.2456,2.2456,0,0,2.1794,2.184,2.1869,2.1947,2.1986,2.2036,2.2036,2.2089,2.2126,2.215,2.2215,2.2248,2.2306,2.2374,2.2406,2.2402,2.2502,2.2478,2.248,2.2484,2.2523,2.2529,2.2535,2.2458,2.2458,2.2458,0,0,2.1837,2.1877,2.1927,2.1966,2.2024,2.2055,2.2067,2.2129,2.2151,2.2218,2.2236,2.2282,2.2372,2.2412,2.2444,2.2502,2.2514,2.2518,2.2534,2.2572,2.2577,2.2582,2.2602,2.2609,2.2523,2.2523,2.2523,0,2.1842,2.1918,2.1951,2.2003,2.2037,2.206,2.2111,2.2148,2.222,2.2243,2.2238,2.2351,2.2392,2.2469,2.2483,2.2509,2.2524,2.251,2.2574,2.2579,2.2584,2.2604,2.2612,2.2523,2.2523,2.2523,2.2523,0,2.1921,2.1973,2.2007,2.2075,2.2113,2.2165,2.2206,2.224,2.2258,2.2289,2.2357,2.2406,2.2468,2.2488,2.2506,2.2568,2.2564,2.2566,2.2556,2.259,2.2609,2.2617,2.2523,2.2523,2.2523,2.2523,0,0,2.1957,2.2043,2.2055,2.2086,2.2152,2.2193,2.2246,2.2306,2.2335,2.2384,2.2429,2.2504,2.2506,2.2543,2.2566,2.2598,2.2641,2.2596,2.2598,2.2602,2.2712,2.271,2.2718,2.2649,2.265,2.2652,2.2707,0,2.2008,2.2102,2.2133,2.2211,2.226,2.2282,2.2328,2.2373,2.2404,2.245,2.2484,2.2537,2.2535,2.2557,2.2591,2.2628,2.2663,2.2625,2.2691,2.2693,2.2676,2.2729,2.2727,2.2777,2.2715,2.2716,2.2717,0,2.208,2.213,2.2212,2.2272,2.2293,2.2334,2.2391,2.2435,2.2487,2.2507,2.2547,2.2567,2.2623,2.261,2.2688,2.2661,2.269,2.2713,2.2716,2.2723,2.2707,2.2737,2.2794,2.2801,2.273,2.2729,2.2728,0,2.2098,2.2185,2.2246,2.2272,2.2343,2.2371,2.2402,2.2453,2.2487,2.2537,2.2559,2.2616,2.2647,2.269,2.2725,2.2712,2.28,2.279,2.2818,2.2817,2.2836,2.2834,2.2897,2.2855,2.2855,2.2854,2.2854,0,2.2152,2.2201,2.2255,2.2292,2.2348,2.2384,2.2439,2.2471,2.2516,2.256,2.2583,2.2624,2.2668,2.2715,2.2743,2.2803,2.2817,2.2835,2.2842,2.2833,2.2831,2.2852,2.285,2.2856,2.2856,2.2856,2.2855,0,2.2181,2.2219,2.2286,2.2348,2.2364,2.2403,2.2456,2.2493,2.2524,2.258,2.2595,2.2644,2.2701,2.274,2.2813,2.2831,2.2896,2.2903,2.2878,2.2882,2.2908,2.2905,2.2987,2.3,2.2949,2.2949,2.295,0,2.2213,2.2251,2.2316,2.2347,2.2378,2.2427,2.2462,2.2498,2.2533,2.2595,2.2625,2.2683,2.2731,2.282,2.2863,2.2919,2.2927,2.2952,2.2935,2.2925,2.2927,2.2924,2.2928,2.2954,2.2955,2.2955,2.2955,0,2.2265,2.2281,2.233,2.2385,2.2425,2.247,2.2516,2.254,2.2584,2.2622,2.268,2.2717,2.2791,2.2848,2.2908,2.294,2.2955,2.296,2.297,2.2961,2.2945,2.2953,2.2885,2.2958,2.2958,2.2958,2.2957,2.2957,2.2296,2.2331,2.2382,2.2435,2.2473,2.2515,2.2553,2.2588,2.2636,2.2699,2.2718,2.2777,2.2829,2.291,2.2944,2.2991,2.2989,2.3003,2.3007,2.301,2.3009,2.2937,2.3002,2.3002,2.3002,2.3002,2.3002,0,2.2349,2.2383,2.2431,2.2494,2.2535,2.2545,2.2596,2.263,2.2682,2.2728,2.2775,2.284,2.2896,2.2943,2.3,2.3029,2.3038,2.3043,2.3041,2.3048,2.3008,2.2993,2.3035,2.3035,2.3035,2.3035,2.3035,2.3035,2.2382,2.2441,2.2464,2.2542,2.2576,2.2634,2.2662,2.2701,2.2738,2.281,2.2855,2.2885,2.2932,2.2993,2.3044,2.3057,2.3077,2.308,2.3094,2.3055,2.3051,2.3048,2.3035,2.3085,2.3085,2.3131,2.3132,2.3132]},{"header":{"parameterUnit":"m.s-1","parameterCategory":1,"la1":30.2991,"la2":30.254,"lo1":-89.0895,"lo2":-89.0444,"dy":0.0017,"dx":0.0017,"nx":28,"ny":28,"refTime":"2025-11-09T09:00:00:Z","depth":0,"parameterNumber":3,"parameterNumberName":"V-component_of_WINDS"},"data":[0,0,0,0,0,0,0,0,0,0,0,0,0,0,0,0,0,0,0,0,0,0,0,0,0,0,0,0,0,0,0,0,0,0,0,0,0,0,0,0,0,0,0,0,0,0,0,0,0,0,0,0,0,0,0,0,0,0,0.3245,0.3245,0,0.3208,0.3207,0.3207,0.3172,0.3172,0.3171,0.3171,0.3132,0.3131,0.313,0,0,0,0,0,0,0,0,0,0,0,0,0,0.3284,0.3284,0.3245,0.3245,0.3244,0.3208,0.3207,0.3207,0.3172,0.3172,0.3171,0.3171,0.3132,0.3131,0.313,0,0,0,0,0,0,0,0,0,0,0,0,0,0.3259,0.3283,0.3245,0.3222,0.322,0.3208,0.3207,0.3207,0.3172,0.3172,0.3171,0.317,0.3132,0.3131,0.313,0.3137,0,0,0.3127,0.3127,0,0,0,0,0,0,0,0,0.3261,0.3258,0.3226,0.3224,0.3221,0.3194,0.3207,0.3183,0.3173,0.319,0.3171,0.317,0.3153,0.315,0.3145,0.3135,0.3134,0.3127,0.3127,0.3126,0.3126,0,0,0,0,0,0,0,0.3262,0.3259,0.323,0.3226,0.3223,0.3214,0.3209,0.3202,0.3176,0.3189,0.3186,0.3182,0.3151,0.3146,0.3143,0.3133,0.3127,0.3126,0.3126,0.3125,0.3126,0.3127,0,0,0,0,0,0,0.3268,0.3261,0.3231,0.3229,0.324,0.3213,0.3209,0.3203,0.3176,0.3171,0.3183,0.3181,0.3148,0.3145,0.3142,0.3147,0.3126,0.3125,0.3125,0.3126,0.3126,0.3127,0,0,0,0,0,0,0.3269,0.3265,0.3233,0.3244,0.3239,0.3213,0.3208,0.3203,0.3197,0.3171,0.3166,0.3182,0.3147,0.3143,0.3138,0.3146,0.3125,0.3124,0.3125,0.3126,0.3127,0.3159,0,0,0,0,0,0,0.327,0.3266,0.3269,0.3245,0.3239,0.3231,0.3208,0.3203,0.3196,0.3193,0.3169,0.3164,0.3146,0.314,0.3137,0.3144,0.3123,0.3124,0.3125,0.3126,0.3157,0.3161,0.3164,0,0,0,0,0,0.3272,0.328,0.3269,0.3266,0.3242,0.3231,0.3228,0.3207,0.3197,0.3199,0.3182,0.3165,0.3145,0.314,0.3137,0.3143,0.3124,0.3125,0.3126,0.3156,0.316,0.3164,0,0,0,0,0,0,0.3305,0.3276,0.3264,0.3265,0.3251,0.3225,0.3228,0.3213,0.3201,0.3199,0.3173,0.3168,0.3166,0.3154,0.3148,0.3147,0.3132,0.3133,0.3155,0.316,0.3163,0.3166,0.3122,0,0,0,0,0,0.3313,0.3307,0.3281,0.3284,0.3278,0.3254,0.3249,0.3234,0.3218,0.3212,0.3195,0.318,0.317,0.3164,0.3154,0.3155,0.3149,0.3158,0.3161,0.3164,0.3165,0.3164,0.3167,0.3131,0.3131,0.3131,0,0,0.3328,0.3311,0.3309,0.3291,0.3278,0.3272,0.3249,0.3244,0.3239,0.3211,0.3205,0.3192,0.3173,0.3172,0.317,0.3162,0.3174,0.3166,0.3168,0.3168,0.3166,0.3169,0.3172,0.3132,0.3132,0.3132,0,0,0.3353,0.334,0.3341,0.3329,0.331,0.3294,0.3294,0.3271,0.3261,0.3255,0.3233,0.3226,0.321,0.3198,0.3189,0.3208,0.3192,0.3206,0.3224,0.3223,0.3226,0.3228,0.3235,0.3237,0.3207,0.3207,0.3207,0,0.3375,0.3365,0.3343,0.3339,0.3331,0.3305,0.3305,0.3294,0.3273,0.3267,0.3258,0.3237,0.3223,0.3217,0.3222,0.3216,0.3214,0.3208,0.3227,0.323,0.3232,0.3237,0.324,0.3209,0.3208,0.3208,0.3208,0,0.3392,0.3386,0.3388,0.3369,0.3361,0.3359,0.3336,0.333,0.3316,0.33,0.3294,0.3276,0.3261,0.3258,0.3244,0.325,0.3246,0.3232,0.3216,0.3237,0.3242,0.3244,0.3211,0.321,0.321,0.3209,0,0,0.3438,0.3405,0.3407,0.3397,0.3374,0.3368,0.3365,0.335,0.3346,0.3332,0.3327,0.3314,0.3301,0.3292,0.3276,0.3275,0.329,0.3261,0.3261,0.3267,0.3295,0.3305,0.3308,0.3279,0.328,0.328,0.3297,0,0.3459,0.3451,0.3431,0.3429,0.3422,0.3397,0.3394,0.3379,0.3364,0.3356,0.3339,0.333,0.3314,0.3308,0.3307,0.3289,0.3296,0.3287,0.3275,0.3274,0.328,0.3311,0.3322,0.3339,0.3299,0.3299,0.3299,0,0.3482,0.347,0.3468,0.3444,0.3441,0.3438,0.3423,0.3416,0.3398,0.3387,0.3376,0.3358,0.3352,0.3337,0.3327,0.3322,0.3316,0.3306,0.3306,0.3304,0.3288,0.331,0.3343,0.3346,0.3302,0.3302,0.3302,0,0.3515,0.3498,0.3494,0.3487,0.346,0.3458,0.3447,0.3428,0.3421,0.3407,0.3402,0.3387,0.338,0.3368,0.3347,0.3338,0.3339,0.3323,0.333,0.333,0.3331,0.3331,0.3364,0.3327,0.3327,0.3327,0.3327,0,0.354,0.354,0.3509,0.3506,0.3505,0.3481,0.348,0.3466,0.3449,0.3443,0.342,0.3415,0.3387,0.3378,0.3361,0.3355,0.3352,0.3342,0.3338,0.3344,0.3345,0.3339,0.3338,0.3328,0.3328,0.3328,0.3327,0,0.3577,0.3556,0.355,0.3525,0.3519,0.3519,0.3496,0.3493,0.3476,0.3469,0.3466,0.344,0.3428,0.3406,0.3387,0.3376,0.3374,0.3366,0.338,0.3377,0.3385,0.3384,0.3415,0.3417,0.3379,0.338,0.338,0,0.3595,0.3594,0.3568,0.3563,0.3552,0.3544,0.3536,0.3512,0.3504,0.3483,0.3482,0.3468,0.3456,0.3439,0.3418,0.3403,0.3395,0.3407,0.3393,0.3399,0.3394,0.3395,0.3394,0.341,0.341,0.3411,0.3411,0,0.3628,0.3617,0.3607,0.3593,0.3584,0.3572,0.3558,0.3555,0.3527,0.352,0.3508,0.3499,0.348,0.3467,0.3449,0.3436,0.3419,0.3416,0.3416,0.3423,0.3431,0.3426,0.3388,0.3415,0.3415,0.3414,0.3414,0.3414,0.3655,0.3653,0.3634,0.3623,0.3611,0.3598,0.3594,0.3577,0.3566,0.355,0.3536,0.3525,0.3505,0.348,0.3468,0.3459,0.345,0.3452,0.3452,0.3452,0.3455,0.3433,0.3455,0.3455,0.3455,0.3455,0.3455,0,0.3686,0.3673,0.3664,0.3645,0.3637,0.3621,0.3605,0.3599,0.3589,0.3574,0.3562,0.3548,0.3534,0.3512,0.3497,0.3493,0.3485,0.349,0.349,0.3487,0.3463,0.3464,0.3497,0.3497,0.3497,0.3497,0.3497,0.3497,0.3702,0.3697,0.3684,0.3673,0.3659,0.3648,0.364,0.3629,0.3616,0.3601,0.359,0.3576,0.3557,0.354,0.3527,0.352,0.3515,0.3523,0.3514,0.3493,0.3489,0.3485,0.3486,0.3522,0.3522,0.3538,0.3539,0.3539]}]]